This demonstration page uses our WeatherBlox Daily Observations layout. Learn more.

Left ArrowRight Arrow

34.16533, -84.80231

Hourly Observations for August 14, 2017

Temp ( °F °C ) Dew Point ( °F °C ) Humidity (%) Winds ( mph kmh ) Pressure ( in mb ) Visibility ( mi km ) Precip ( " mm )
12:53 am 00:53 Clear 72 22.2 72 22.2 100 100 Calm 29.92 1013 10 16 0.00 0.00
1:53 am 01:53 Clear 72 22.2 72 22.2 100 100 Calm 29.91 1013 8 13 0.00 0.00
2:53 am 02:53 Clear 71 21.7 71 21.7 100 100 Calm 29.90 1013 9 14 0.00 0.00
3:53 am 03:53 Partly Cloudy 71 21.7 71 21.7 100 100 Calm 29.90 1013 8 13 0.00 0.00
4:53 am 04:53 Mostly Clear 71 21.7 71 21.7 100 100 Calm 29.91 1013 9 14 0.00 0.00
5:02 am 05:02 Partly Cloudy 71 21.7 71 21.7 100 100 Calm 29.94 1014 9 14 0.00 0.00
5:11 am 05:11 Mostly Cloudy 71 21.7 71 21.7 100 100 Calm 29.94 1014 9 14 0.00 0.00
5:53 am 05:53 Mostly Cloudy 71 21.7 71 21.7 100 100 Calm 29.91 1013 8 13 0.00 0.00
6:21 am 06:21 Cloudy with Mist and Fog 71 21.7 71 21.7 100 100 Calm 29.97 1015 2 2 0.00 0.00
6:53 am 06:53 Mostly Cloudy with Fog 70 21.1 70 21.1 100 100 Calm 29.92 1013 1 1 0.00 0.00
7:04 am 07:04 Mostly Cloudy with Mist and Fog 70 21.1 70 21.1 100 100 Calm 29.97 1015 3 4 0.00 0.00
7:11 am 07:11 Mostly Cloudy with Mist and Fog 70 21.1 70 21.1 100 100 SE 5 7 29.97 1015 6 10 0.00 0.00
7:18 am 07:18 Partly Cloudy 70 21.1 70 21.1 100 100 SE 3 6 29.97 1015 7 11 0.00 0.00
7:53 am 07:53 Sunny 72 22.2 72 22.2 100 100 Calm 29.93 1014 10 16 0.00 0.00
8:53 am 08:53 Sunny 76 24.4 73 22.8 91 91 Calm 29.94 1014 10 16 0.00 0.00
9:53 am 09:53 Sunny 78 25.6 75 23.9 90 90 ESE 3 6 29.94 1014 10 16 0.00 0.00
10:53 am 10:53 Sunny 84 28.9 74 23.3 72 72 VRB 3 6 29.93 1014 10 16 0.00 0.00
11:53 am 11:53 Mostly Cloudy 86 30 74 23.3 67 67 VRB 5 7 29.92 1013 10 16 0.00 0.00
12:53 pm 12:53 Mostly Cloudy 89 31.7 74 23.3 61 61 Calm 29.91 1013 10 16 0.00 0.00
1:53 pm 13:53 Partly Cloudy 89 31.7 74 23.3 61 61 VRB 3 6 29.89 1012 10 16 0.00 0.00
2:53 pm 14:53 Sunny 89 31.7 72 22.2 57 57 Calm 29.87 1012 10 16 0.00 0.00
3:53 pm 15:53 Mostly Sunny 91 32.8 70 21.1 50 50 SSW 7 11 29.84 1010 10 16 0.00 0.00
4:53 pm 16:53 Partly Cloudy 89 31.7 71 21.7 55 55 S 3 6 29.83 1010 10 16 0.00 0.03
5:06 pm 17:06 Mostly Cloudy with Nearby Thunderstorms 88 31.1 73 22.8 61 61 Calm 29.85 1011 10 16 0.00 0.00
5:32 pm 17:32 Cloudy with Light Rain 81 27.2 74 23.3 79 79 VRB 5 7 29.88 1012 8 13 0.00 0.03
5:50 pm 17:50 Mostly Cloudy with Nearby Thunderstorms 77 25 75 24 94 94 Calm 29.88 1012 10 16 0.01 0.25
5:53 pm 17:53 Mostly Cloudy with Nearby Thunderstorms 77 25 76 24.4 96 96 Calm 29.87 1011 10 16 0.01 0.25
6:07 pm 18:07 Mostly Sunny 78 25.6 76 24.4 93 93 VRB 3 6 29.88 1012 10 16 0.00 0.00
6:53 pm 18:53 Sunny 78 25.6 75 23.9 90 90 Calm 29.87 1012 10 16 0.00 0.00
7:53 pm 19:53 Sunny 77 25 76 24.4 96 96 Calm 29.88 1012 10 16 0.00 0.00
8:53 pm 20:53 Clear 76 24.4 76 24.4 100 100 Calm 29.89 1012 10 16 0.00 0.00
9:53 pm 21:53 Clear 75 23.9 75 23.9 100 100 Calm 29.90 1012 10 16 0.00 0.00
10:53 pm 22:53 Clear 75 23.9 75 23.9 100 100 Calm 29.91 1013 10 16 0.00 0.00
11:53 pm 23:53 Mostly Clear 74 23.3 74 23.3 100 100 Calm 29.89 1012 10 16 0.00 0.00

Powered by AerisWeather